{"data":{"norad_id":62845,"intl_designator":"2025-019S","name":"STARLINK-32807","alt_names":[],"object_type":"PAYLOAD","status":"ACTIVE","operator":null,"country":"US","launch_date":"2025-01-27","launch_site_code":"AFETR","launch_vehicle":null,"mission":null,"orbit_class":"UNKNOWN","rcs_meters":null,"size_class":null,"mass_kg":null,"dimensions":null,"purposes":["comms"],"wikipedia_slug":null,"has_3d_model":false,"image_url":null,"decayed_at":null,"tle_current":{"epoch":"2026-09-20T21:54:04.315680Z","epoch_age_seconds":132526,"freshness":"FRESH","line1":"1 62845U 25019S   26263.91254995  .00013291  00000+0  49146-3 0  9997","line2":"2 62845  42.9967  59.0260 0001369 276.7627  83.3069 15.27591763 92198","mean_motion":15.27591763,"eccentricity":0.0001369,"inclination_deg":42.9967,"raan_deg":59.026,"arg_perigee_deg":276.7627,"mean_anomaly_deg":83.3069,"bstar":0.00049146,"rev_number":9219,"period_min":94.266022826152,"perigee_km":482.07458205736,"apogee_km":483.95316516656,"semimajor_km":6861.150873612,"source":"CELESTRAK","updated_at":"2026-09-22T09:00:49.674287Z"}}}